Change the Weather History Date:

Sunday, June 16, 2013

  Actual Average Record
Temperature  
Mean Temperature 76 °F -  
Max Temperature 82 °F 83 °F 88 °F (1980)
Min Temperature 70 °F 70 °F 62 °F (1986)
Cooling Degree Days 11    
Growing Degree Days 26 (Base 50)    
Moisture  
Dew Point 67 °F    
Average Humidity 77    
Maximum Humidity 93    
Minimum Humidity 60    
Precipitation  
Precipitation 0.00 in - - ()
Sea Level Pressure  
Sea Level Pressure 30.00 in    
Wind  
Wind Speed 12 mph (NE)    
Max Wind Speed 18 mph    
Max Gust Speed 31 mph    
Visibility 10 miles    
Events Rain    
Averages and records for this station are not official NWS values.
T = Trace of Precipitation, MM = Missing Value Source: NWS Daily Summary

Daily Weather History Graph

Daily Weather History Graph

Search for Another Location

Airport or City:

Trip Planner

Search our weather history database for the weather conditions in past years. The results will help you decide how hot, cold, wet, or windy it might be!

Date:

Astronomy

Jun. 16, 2013 Rise Set
Actual Time 5:46 AM HST 7:11 PM HST
Civil Twilight 5:21 AM HST 7:36 PM HST
Nautical Twilight 4:52 AM HST 8:06 PM HST
Astronomical Twilight 4:21 AM HST 8:36 PM HST
Moon 12:41 PM HST (6/16) 12:11 AM HST (6/16)
Length of Visible Light 14h 14m
Length of Day
13h 25m
First Quarter, 52% of the Moon is Illuminated
Jun 16
First Quarter
Jun 23
Full
Jun 29
Last Quarter
Jul 7
New
Jul 15
First Quarter

Hourly Weather History & Observations

Time (HST) Temp. Heat Index Dew Point Humidity Pressure Visibility Wind Dir Wind Speed Gust Speed Precip Events Conditions
12:54 AM 71.1 °F - 68.0 °F 90% 29.99 in 10.0 mi NNE 10.4 mph 19.6 mph N/A   Clear
1:54 AM 70.0 °F - 68.0 °F 93% 29.98 in 10.0 mi NNE 10.4 mph 20.7 mph 0.00 in Rain Light Rain
2:54 AM 70.0 °F - 66.9 °F 90% 29.97 in 10.0 mi NNE 10.4 mph - 0.00 in   Clear
3:54 AM 71.1 °F - 66.0 °F 84% 29.96 in 10.0 mi NE 8.1 mph - N/A   Clear
4:54 AM 72.0 °F - 68.0 °F 87% 29.98 in 10.0 mi NE 11.5 mph 19.6 mph N/A   Clear
5:54 AM 71.1 °F - 66.9 °F 87% 30.00 in 10.0 mi NE 10.4 mph 18.4 mph N/A   Partly Cloudy
6:54 AM 73.0 °F - 68.0 °F 84% 30.02 in 10.0 mi NE 13.8 mph 23.0 mph N/A   Clear
7:54 AM 75.9 °F - 64.0 °F 67% 30.03 in 10.0 mi NE 13.8 mph 20.7 mph N/A   Clear
8:54 AM 79.0 °F - 66.0 °F 64% 30.02 in 10.0 mi NE 13.8 mph 25.3 mph N/A   Partly Cloudy
9:54 AM 80.1 °F 82.1 °F 66.0 °F 62% 30.01 in 10.0 mi NE 18.4 mph 26.5 mph N/A   Partly Cloudy
10:54 AM 81.0 °F 83.0 °F 66.0 °F 60% 30.01 in 10.0 mi NE 16.1 mph 26.5 mph N/A   Partly Cloudy
11:54 AM 82.0 °F 84.5 °F 66.9 °F 60% 30.01 in 10.0 mi NE 16.1 mph 27.6 mph N/A   Partly Cloudy
12:54 PM 82.0 °F 84.5 °F 66.9 °F 60% 29.99 in 10.0 mi NE 16.1 mph 26.5 mph N/A   Clear
1:54 PM 82.9 °F 86.5 °F 69.1 °F 63% 29.99 in 10.0 mi NE 13.8 mph 27.6 mph N/A   Clear
2:54 PM 80.1 °F 82.7 °F 68.0 °F 67% 29.99 in 10.0 mi NE 13.8 mph 26.5 mph N/A   Partly Cloudy
3:54 PM 79.0 °F - 68.0 °F 69% 29.98 in 10.0 mi NE 16.1 mph 31.1 mph N/A   Partly Cloudy
4:54 PM 78.1 °F - 69.1 °F 74% 29.97 in 10.0 mi NE 16.1 mph 28.8 mph N/A   Partly Cloudy
5:54 PM 75.9 °F - 68.0 °F 76% 29.99 in 10.0 mi NNE 16.1 mph 26.5 mph N/A   Partly Cloudy
6:54 PM 73.0 °F - 68.0 °F 84% 30.01 in 10.0 mi NE 12.7 mph 23.0 mph N/A   Clear
7:54 PM 73.0 °F - 68.0 °F 84% 30.01 in 10.0 mi NE 17.3 mph 25.3 mph N/A   Partly Cloudy
8:54 PM 73.0 °F - 66.9 °F 81% 30.03 in 10.0 mi NE 13.8 mph 26.5 mph N/A   Clear
9:54 PM 72.0 °F - 69.1 °F 91% 30.04 in 10.0 mi NNE 10.4 mph 20.7 mph N/A   Clear
10:54 PM 72.0 °F - 66.0 °F 81% 30.05 in 10.0 mi NE 8.1 mph - N/A   Clear
11:54 PM 72.0 °F - 66.9 °F 84% 30.04 in 10.0 mi NE 9.2 mph 17.3 mph N/A   Clear